PRIVATE WETTERSTATION BILLIGHEIM-ALLFELD                       ZURCK
Wetterdaten: Dienstag, 26.12.2017
Datum Zeit Temp. A. Temp. A. min Temp. A. max Feuchte A. Luftdruck Regen Wind Richtung Richtung Sonnenschein ET Solar Taupunkt Windchill Windben Empfang
26.12.2017 00:00 -2,6 C -2,6 C -2,6 C 91 % 1013,2 hPa 0,0 l/m 0,0 km/h (0 Bft) N 0 0 min 0,000 mm 0 W/m -3,9 C -2,6 C 0,0 km/h (0 Bft) 100 %
26.12.2017 00:10 -2,7 C -2,7 C -2,6 C 91 % 1013,1 hPa 0,0 l/m 0,0 km/h (0 Bft) N 0 0 min 0,000 mm 0 W/m -4,0 C -2,7 C 0,0 km/h (0 Bft) 100 %
26.12.2017 00:20 -2,8 C -2,8 C -2,7 C 91 % 1013,0 hPa 0,0 l/m 0,0 km/h (0 Bft) N 0 0 min 0,000 mm 0 W/m -4,1 C -2,8 C 0,0 km/h (0 Bft) 100 %
26.12.2017 00:30 -2,9 C -2,9 C -2,8 C 91 % 1013,0 hPa 0,0 l/m 0,0 km/h (0 Bft) N 0 0 min 0,000 mm 0 W/m -4,2 C -2,9 C 0,0 km/h (0 Bft) 100 %
26.12.2017 00:40 -2,9 C -2,9 C -2,9 C 91 % 1012,9 hPa 0,0 l/m 0,0 km/h (0 Bft) N 0 0 min 0,000 mm 0 W/m -4,2 C -2,9 C 0,0 km/h (0 Bft) 100 %
26.12.2017 00:50 -3,0 C -3,0 C -2,9 C 91 % 1012,7 hPa 0,0 l/m 0,0 km/h (0 Bft) N 0 0 min 0,000 mm 0 W/m -4,3 C -3,0 C 0,0 km/h (0 Bft) 100 %
26.12.2017 01:00 -3,0 C -3,1 C -2,9 C 91 % 1012,6 hPa 0,0 l/m 0,0 km/h (0 Bft) N 0 0 min 0,000 mm 0 W/m -4,3 C -3,0 C 0,0 km/h (0 Bft) 99 %
26.12.2017 01:10 -3,1 C -3,1 C -3,0 C 91 % 1012,4 hPa 0,0 l/m 0,0 km/h (0 Bft) N 0 0 min 0,000 mm 0 W/m -4,4 C -3,1 C 0,0 km/h (0 Bft) 92 %
26.12.2017 01:20 -3,2 C -3,2 C -3,1 C 91 % 1012,2 hPa 0,0 l/m 0,0 km/h (0 Bft) N 0 0 min 0,000 mm 0 W/m -4,5 C -3,2 C 0,0 km/h (0 Bft) 100 %
26.12.2017 01:30 -3,2 C -3,2 C -3,2 C 91 % 1012,0 hPa 0,0 l/m 0,0 km/h (0 Bft) N 0 0 min 0,000 mm 0 W/m -4,5 C -3,2 C 0,0 km/h (0 Bft) 100 %
26.12.2017 01:40 -3,3 C -3,3 C -3,2 C 91 % 1011,8 hPa 0,0 l/m 0,0 km/h (0 Bft) N 0 0 min 0,000 mm 0 W/m -4,6 C -3,3 C 0,0 km/h (0 Bft) 100 %
26.12.2017 01:50 -3,4 C -3,4 C -3,3 C 91 % 1011,6 hPa 0,0 l/m 0,0 km/h (0 Bft) N 0 0 min 0,000 mm 0 W/m -4,7 C -3,4 C 0,0 km/h (0 Bft) 100 %
26.12.2017 02:00 -3,4 C -3,4 C -3,4 C 91 % 1011,4 hPa 0,0 l/m 0,0 km/h (0 Bft) N 0 0 min 0,000 mm 0 W/m -4,7 C -3,4 C 0,0 km/h (0 Bft) 100 %
26.12.2017 02:10 -3,4 C -3,4 C -3,4 C 91 % 1011,3 hPa 0,0 l/m 0,0 km/h (0 Bft) N 0 0 min 0,000 mm 0 W/m -4,7 C -3,4 C 0,0 km/h (0 Bft) 89 %
26.12.2017 02:20 -3,5 C -3,6 C -3,4 C 91 % 1011,3 hPa 0,0 l/m 0,0 km/h (0 Bft) N 0 0 min 0,000 mm 0 W/m -4,8 C -3,5 C 0,0 km/h (0 Bft) 100 %
26.12.2017 02:30 -3,6 C -3,6 C -3,5 C 91 % 1011,2 hPa 0,0 l/m 0,0 km/h (0 Bft) N 0 0 min 0,000 mm 0 W/m -4,8 C -3,6 C 0,0 km/h (0 Bft) 100 %
26.12.2017 02:40 -3,6 C -3,6 C -3,6 C 91 % 1011,2 hPa 0,0 l/m 0,0 km/h (0 Bft) N 0 0 min 0,000 mm 0 W/m -4,8 C -3,6 C 0,0 km/h (0 Bft) 100 %
26.12.2017 02:50 -3,6 C -3,6 C -3,6 C 91 % 1011,2 hPa 0,0 l/m 0,0 km/h (0 Bft) N 0 0 min 0,000 mm 0 W/m -4,8 C -3,6 C 0,0 km/h (0 Bft) 100 %
26.12.2017 03:00 -3,6 C -3,6 C -3,6 C 91 % 1011,0 hPa 0,0 l/m 0,0 km/h (0 Bft) N 0 0 min 0,000 mm 0 W/m -4,8 C -3,6 C 0,0 km/h (0 Bft) 100 %
26.12.2017 03:10 -3,4 C -3,6 C -3,4 C 91 % 1010,8 hPa 0,0 l/m 0,0 km/h (0 Bft) N 0 0 min 0,000 mm 0 W/m -4,7 C -3,4 C 0,0 km/h (0 Bft) 100 %
26.12.2017 03:20 -3,4 C -3,4 C -3,4 C 91 % 1010,7 hPa 0,0 l/m 0,0 km/h (0 Bft) N 0 0 min 0,000 mm 0 W/m -4,7 C -3,4 C 0,0 km/h (0 Bft) 100 %
26.12.2017 03:30 -3,4 C -3,4 C -3,4 C 91 % 1010,5 hPa 0,0 l/m 0,0 km/h (0 Bft) N 0 0 min 0,000 mm 0 W/m -4,7 C -3,4 C 0,0 km/h (0 Bft) 100 %
26.12.2017 03:40 -3,4 C -3,4 C -3,4 C 91 % 1010,4 hPa 0,0 l/m 0,0 km/h (0 Bft) N 0 0 min 0,000 mm 0 W/m -4,7 C -3,4 C 0,0 km/h (0 Bft) 100 %
26.12.2017 03:50 -3,5 C -3,5 C -3,4 C 91 % 1010,1 hPa 0,0 l/m 0,0 km/h (0 Bft) N 0 0 min 0,000 mm 0 W/m -4,8 C -3,5 C 0,0 km/h (0 Bft) 100 %
26.12.2017 04:00 -3,5 C -3,5 C -3,5 C 91 % 1010,3 hPa 0,0 l/m 0,0 km/h (0 Bft) N 0 0 min 0,000 mm 0 W/m -4,8 C -3,5 C 0,0 km/h (0 Bft) 100 %
26.12.2017 04:10 -3,5 C -3,5 C -3,4 C 91 % 1010,1 hPa 0,0 l/m 0,0 km/h (0 Bft) N 0 0 min 0,000 mm 0 W/m -4,8 C -3,5 C 0,0 km/h (0 Bft) 100 %
26.12.2017 04:20 -3,6 C -3,6 C -3,5 C 91 % 1009,9 hPa 0,0 l/m 0,0 km/h (0 Bft) N 0 0 min 0,000 mm 0 W/m -4,8 C -3,6 C 0,0 km/h (0 Bft) 100 %
26.12.2017 04:30 -3,6 C -3,6 C -3,5 C 91 % 1009,9 hPa 0,0 l/m 0,0 km/h (0 Bft) N 0 0 min 0,000 mm 0 W/m -4,8 C -3,6 C 0,0 km/h (0 Bft) 100 %
26.12.2017 04:40 -3,6 C -3,6 C -3,5 C 91 % 1009,6 hPa 0,0 l/m 0,0 km/h (0 Bft) N 0 0 min 0,000 mm 0 W/m -4,8 C -3,6 C 0,0 km/h (0 Bft) 100 %
26.12.2017 04:50 -3,6 C -3,6 C -3,6 C 91 % 1009,3 hPa 0,0 l/m 0,0 km/h (0 Bft) N 0 0 min 0,000 mm 0 W/m -4,8 C -3,6 C 0,0 km/h (0 Bft) 100 %
26.12.2017 05:00 -3,6 C -3,6 C -3,6 C 91 % 1009,1 hPa 0,0 l/m 0,0 km/h (0 Bft) N 0 0 min 0,000 mm 0 W/m -4,8 C -3,6 C 0,0 km/h (0 Bft) 100 %
26.12.2017 05:10 -3,6 C -3,6 C -3,6 C 91 % 1009,1 hPa 0,0 l/m 0,0 km/h (0 Bft) N 0 0 min 0,000 mm 0 W/m -4,8 C -3,6 C 0,0 km/h (0 Bft) 100 %
26.12.2017 05:20 -3,6 C -3,6 C -3,6 C 91 % 1008,8 hPa 0,0 l/m 0,0 km/h (0 Bft) N 0 0 min 0,000 mm 0 W/m -4,8 C -3,6 C 0,0 km/h (0 Bft) 100 %
26.12.2017 05:30 -3,6 C -3,6 C -3,6 C 91 % 1008,8 hPa 0,0 l/m 0,0 km/h (0 Bft) N 0 0 min 0,000 mm 0 W/m -4,8 C -3,6 C 0,0 km/h (0 Bft) 92 %
26.12.2017 05:40 -3,5 C -3,6 C -3,5 C 91 % 1008,8 hPa 0,0 l/m 0,0 km/h (0 Bft) W-SW 247 0 min 0,000 mm 0 W/m -4,8 C -3,5 C 1,6 km/h (1 Bft) 100 %
26.12.2017 05:50 -3,5 C -3,5 C -3,5 C 91 % 1008,6 hPa 0,0 l/m 0,0 km/h (0 Bft) N 0 0 min 0,000 mm 0 W/m -4,8 C -3,5 C 0,0 km/h (0 Bft) 100 %
26.12.2017 06:00 -3,6 C -3,6 C -3,5 C 91 % 1008,4 hPa 0,0 l/m 0,0 km/h (0 Bft) N 0 0 min 0,000 mm 0 W/m -4,8 C -3,6 C 0,0 km/h (0 Bft) 100 %
26.12.2017 06:10 -3,6 C -3,6 C -3,5 C 91 % 1008,3 hPa 0,0 l/m 0,0 km/h (0 Bft) N 0 0 min 0,000 mm 0 W/m -4,8 C -3,6 C 0,0 km/h (0 Bft) 100 %
26.12.2017 06:20 -3,6 C -3,6 C -3,6 C 91 % 1008,2 hPa 0,0 l/m 0,0 km/h (0 Bft) N 0 0 min 0,000 mm 0 W/m -4,8 C -3,6 C 0,0 km/h (0 Bft) 100 %
26.12.2017 06:30 -3,6 C -3,6 C -3,6 C 91 % 1007,9 hPa 0,0 l/m 0,0 km/h (0 Bft) N 0 0 min 0,000 mm 0 W/m -4,8 C -3,6 C 0,0 km/h (0 Bft) 89 %
26.12.2017 06:40 -3,4 C -3,6 C -3,4 C 91 % 1007,8 hPa 0,0 l/m 0,0 km/h (0 Bft) N 0 0 min 0,000 mm 0 W/m -4,7 C -3,4 C 0,0 km/h (0 Bft) 100 %
26.12.2017 06:50 -3,3 C -3,4 C -3,3 C 91 % 1007,7 hPa 0,0 l/m 0,0 km/h (0 Bft) N 0 0 min 0,000 mm 0 W/m -4,6 C -3,3 C 0,0 km/h (0 Bft) 100 %
26.12.2017 07:00 -3,3 C -3,3 C -3,3 C 91 % 1007,5 hPa 0,0 l/m 0,0 km/h (0 Bft) W-SW 247 0 min 0,000 mm 0 W/m -4,6 C -3,3 C 3,2 km/h (1 Bft) 100 %
26.12.2017 07:10 -3,5 C -3,5 C -3,3 C 91 % 1007,3 hPa 0,0 l/m 1,6 km/h (1 Bft) W-NW 292 0 min 0,000 mm 0 W/m -4,8 C -3,5 C 3,2 km/h (1 Bft) 100 %
26.12.2017 07:20 -3,4 C -3,5 C -3,4 C 91 % 1007,2 hPa 0,0 l/m 0,0 km/h (0 Bft) N 0 0 min 0,000 mm 0 W/m -4,7 C -3,4 C 0,0 km/h (0 Bft) 100 %
26.12.2017 07:30 -3,1 C -3,4 C -3,1 C 91 % 1007,3 hPa 0,0 l/m 0,0 km/h (0 Bft) N 0 0 min 0,000 mm 0 W/m -4,4 C -3,1 C 0,0 km/h (0 Bft) 100 %
26.12.2017 07:40 -2,7 C -3,1 C -2,7 C 91 % 1007,2 hPa 0,0 l/m 0,0 km/h (0 Bft) N 0 0 min 0,000 mm 0 W/m -4,0 C -2,7 C 0,0 km/h (0 Bft) 91 %
26.12.2017 07:50 -1,2 C -2,7 C -1,2 C 92 % 1007,1 hPa 0,0 l/m 0,0 km/h (0 Bft) S-SW 202 0 min 0,000 mm 0 W/m -2,3 C -1,2 C 4,8 km/h (1 Bft) 100 %
26.12.2017 08:00 -0,1 C -1,2 C -0,1 C 92 % 1007,0 hPa 0,0 l/m 3,2 km/h (1 Bft) S-SW 202 0 min 0,000 mm 0 W/m -1,2 C -0,1 C 6,4 km/h (2 Bft) 100 %
26.12.2017 08:10 -0,2 C -0,2 C -0,1 C 91 % 1007,0 hPa 0,0 l/m 4,8 km/h (1 Bft) S-SO 157 0 min 0,000 mm 0 W/m -1,5 C -0,2 C 11,3 km/h (2 Bft) 100 %
26.12.2017 08:20 0,2 C -0,3 C 0,2 C 91 % 1007,0 hPa 0,0 l/m 4,8 km/h (1 Bft) S-SO 157 0 min 0,000 mm 0 W/m -1,1 C 0,2 C 9,7 km/h (2 Bft) 100 %
26.12.2017 08:30 0,5 C 0,2 C 0,5 C 91 % 1006,9 hPa 0,0 l/m 4,8 km/h (1 Bft) S-SO 157 0 min 0,000 mm 5 W/m -0,8 C 0,5 C 8,0 km/h (2 Bft) 100 %
26.12.2017 08:40 0,6 C 0,5 C 0,6 C 91 % 1006,7 hPa 0,0 l/m 4,8 km/h (1 Bft) S-SO 157 0 min 0,000 mm 7 W/m -0,7 C 0,6 C 11,3 km/h (2 Bft) 100 %
26.12.2017 08:50 0,7 C 0,6 C 0,7 C 91 % 1006,5 hPa 0,0 l/m 4,8 km/h (1 Bft) S-SO 157 0 min 0,000 mm 11 W/m -0,6 C 0,7 C 12,9 km/h (3 Bft) 99 %
26.12.2017 09:00 1,3 C 0,7 C 1,3 C 91 % 1006,2 hPa 0,0 l/m 8,0 km/h (2 Bft) S-SO 157 0 min 0,000 mm 14 W/m -0,0 C -0,3 C 17,7 km/h (3 Bft) 90 %
26.12.2017 09:10 1,6 C 1,4 C 1,6 C 91 % 1006,3 hPa 0,0 l/m 6,4 km/h (2 Bft) S-SO 157 0 min 0,000 mm 30 W/m 0,3 C 1,6 C 14,5 km/h (3 Bft) 98 %
26.12.2017 09:20 1,6 C 1,5 C 1,6 C 91 % 1006,2 hPa 0,0 l/m 6,4 km/h (2 Bft) S 180 0 min 0,000 mm 91 W/m 0,3 C 1,6 C 11,3 km/h (2 Bft) 99 %
26.12.2017 09:30 1,7 C 1,6 C 1,7 C 91 % 1006,2 hPa 0,0 l/m 6,4 km/h (2 Bft) S-SO 157 0 min 0,000 mm 98 W/m 0,4 C 1,7 C 11,3 km/h (2 Bft) 99 %
26.12.2017 09:40 2,5 C 1,7 C 2,5 C 91 % 1006,0 hPa 0,0 l/m 8,0 km/h (2 Bft) S-SO 157 0 min 0,000 mm 125 W/m 1,2 C 1,0 C 17,7 km/h (3 Bft) 98 %
26.12.2017 09:50 3,1 C 2,5 C 3,1 C 90 % 1005,8 hPa 0,2 l/m 4,8 km/h (1 Bft) S-SO 157 0 min 0,000 mm 144 W/m 1,6 C 3,1 C 14,5 km/h (3 Bft) 98 %
26.12.2017 10:00 3,3 C 3,1 C 3,3 C 88 % 1005,7 hPa 0,0 l/m 4,8 km/h (1 Bft) S 180 10 min 0,051 mm 223 W/m 1,5 C 3,3 C 9,7 km/h (2 Bft) 100 %
26.12.2017 10:10 3,6 C 3,3 C 3,6 C 88 % 1005,6 hPa 0,0 l/m 6,4 km/h (2 Bft) S 180 10 min 0,000 mm 223 W/m 1,8 C 3,6 C 17,7 km/h (3 Bft) 100 %
26.12.2017 10:20 3,5 C 3,4 C 3,6 C 88 % 1005,3 hPa 0,0 l/m 8,0 km/h (2 Bft) S-SO 157 0 min 0,000 mm 74 W/m 1,7 C 2,0 C 17,7 km/h (3 Bft) 100 %
26.12.2017 10:30 3,7 C 3,5 C 3,7 C 88 % 1005,3 hPa 0,0 l/m 6,4 km/h (2 Bft) S-SO 157 0 min 0,000 mm 128 W/m 1,9 C 3,7 C 16,1 km/h (3 Bft) 100 %
26.12.2017 10:40 3,9 C 3,7 C 3,9 C 87 % 1005,2 hPa 0,2 l/m 6,4 km/h (2 Bft) S-SO 157 0 min 0,000 mm 135 W/m 1,9 C 3,9 C 16,1 km/h (3 Bft) 100 %
26.12.2017 10:50 4,3 C 3,9 C 4,3 C 86 % 1005,2 hPa 0,0 l/m 8,0 km/h (2 Bft) S 180 10 min 0,000 mm 181 W/m 2,2 C 2,9 C 17,7 km/h (3 Bft) 100 %
26.12.2017 11:00 4,6 C 4,3 C 4,6 C 85 % 1005,2 hPa 0,0 l/m 9,7 km/h (2 Bft) S 180 10 min 0,051 mm 190 W/m 2,3 C 1,8 C 20,9 km/h (4 Bft) 100 %
26.12.2017 11:10 4,5 C 4,5 C 4,6 C 86 % 1005,3 hPa 0,0 l/m 8,0 km/h (2 Bft) S 180 0 min 0,000 mm 49 W/m 2,4 C 3,1 C 16,1 km/h (3 Bft) 100 %
26.12.2017 11:20 4,8 C 4,5 C 4,8 C 87 % 1005,2 hPa 0,0 l/m 11,3 km/h (2 Bft) S-SW 202 0 min 0,000 mm 100 W/m 2,8 C 1,0 C 22,5 km/h (4 Bft) 100 %
26.12.2017 11:30 5,3 C 4,8 C 5,3 C 84 % 1005,2 hPa 0,0 l/m 8,0 km/h (2 Bft) S 180 0 min 0,000 mm 100 W/m 2,8 C 3,9 C 17,7 km/h (3 Bft) 100 %
26.12.2017 11:40 5,9 C 5,3 C 5,9 C 83 % 1005,1 hPa 0,0 l/m 8,0 km/h (2 Bft) S 180 0 min 0,000 mm 142 W/m 3,2 C 4,5 C 17,7 km/h (3 Bft) 100 %
26.12.2017 11:50 6,1 C 5,9 C 6,2 C 82 % 1005,2 hPa 0,0 l/m 6,4 km/h (2 Bft) S 180 0 min 0,000 mm 54 W/m 3,3 C 6,1 C 16,1 km/h (3 Bft) 100 %
26.12.2017 12:00 6,0 C 6,0 C 6,2 C 83 % 1005,2 hPa 0,0 l/m 8,0 km/h (2 Bft) S-SW 202 0 min 0,025 mm 46 W/m 3,3 C 4,7 C 17,7 km/h (3 Bft) 100 %
26.12.2017 12:10 6,4 C 5,9 C 6,4 C 82 % 1005,2 hPa 0,0 l/m 12,9 km/h (3 Bft) S-SW 202 0 min 0,000 mm 39 W/m 3,6 C 1,9 C 25,7 km/h (4 Bft) 100 %
26.12.2017 12:20 7,3 C 6,4 C 7,3 C 79 % 1005,5 hPa 0,0 l/m 20,9 km/h (4 Bft) SW 225 0 min 0,000 mm 54 W/m 3,9 C -0,5 C 51,5 km/h (7 Bft) 100 %
26.12.2017 12:30 8,4 C 7,4 C 8,4 C 75 % 1005,7 hPa 0,0 l/m 27,4 km/h (4 Bft) SW 225 0 min 0,000 mm 95 W/m 4,2 C -1,0 C 54,7 km/h (7 Bft) 100 %
26.12.2017 12:40 8,6 C 8,4 C 8,6 C 77 % 1005,9 hPa 0,0 l/m 25,7 km/h (4 Bft) SW 225 10 min 0,000 mm 186 W/m 4,8 C -0,3 C 62,8 km/h (8 Bft) 97 %
26.12.2017 12:50 8,6 C 8,6 C 8,6 C 78 % 1005,8 hPa 0,0 l/m 25,7 km/h (4 Bft) SW 225 10 min 0,000 mm 243 W/m 5,0 C -0,3 C 53,1 km/h (7 Bft) 98 %
26.12.2017 13:00 8,2 C 8,2 C 8,6 C 80 % 1006,2 hPa 0,0 l/m 25,7 km/h (4 Bft) SW 225 0 min 0,102 mm 142 W/m 5,0 C -0,8 C 53,1 km/h (7 Bft) 97 %
26.12.2017 13:10 7,8 C 7,8 C 8,2 C 80 % 1006,4 hPa 0,0 l/m 24,1 km/h (4 Bft) W-SW 247 0 min 0,000 mm 98 W/m 4,6 C -0,9 C 51,5 km/h (7 Bft) 98 %
26.12.2017 13:20 7,3 C 7,3 C 8,2 C 81 % 1006,5 hPa 0,1 l/m 21,8 km/h (4 Bft) S-SW 209 0 min 0,000 mm 51 W/m 4,3 C -0,8 C 32,2 km/h (5 Bft) 100 %
26.12.2017 13:30 6,9 C 6,9 C 7,3 C 83 % 1006,6 hPa 0,0 l/m 22,1 km/h (4 Bft) S-SW 212 0 min 0,000 mm 37 W/m 4,2 C -1,5 C 49,9 km/h (6 Bft) 100 %
26.12.2017 13:40 6,6 C 6,6 C 6,9 C 84 % 1006,8 hPa 0,0 l/m 26,0 km/h (4 Bft) S-SW 199 0 min 0,000 mm 21 W/m 4,1 C -3,1 C 51,5 km/h (7 Bft) 100 %
26.12.2017 13:50 6,4 C 6,4 C 6,6 C 85 % 1006,8 hPa 0,0 l/m 20,7 km/h (4 Bft) SW 214 0 min 0,000 mm 26 W/m 4,1 C -1,6 C 51,5 km/h (7 Bft) 100 %
26.12.2017 14:00 6,4 C 6,4 C 6,4 C 84 % 1007,1 hPa 0,0 l/m 21,8 km/h (4 Bft) S-SW 205 0 min 0,050 mm 33 W/m 3,9 C -2,0 C 51,5 km/h (7 Bft) 100 %
26.12.2017 14:10 6,4 C 6,4 C 6,5 C 86 % 1007,0 hPa 0,0 l/m 22,7 km/h (4 Bft) SW 219 0 min 0,000 mm 69 W/m 4,2 C -2,3 C 46,7 km/h (6 Bft) 100 %
26.12.2017 14:20 6,3 C 6,3 C 6,4 C 84 % 1007,5 hPa 0,0 l/m 26,9 km/h (4 Bft) SW 218 0 min 0,000 mm 121 W/m 3,8 C -3,7 C 48,3 km/h (6 Bft) 100 %
26.12.2017 14:30 6,3 C 6,3 C 6,3 C 84 % 1007,2 hPa 0,0 l/m 24,8 km/h (4 Bft) W 261 0 min 0,000 mm 105 W/m 3,8 C -3,1 C 46,7 km/h (6 Bft) 100 %
26.12.2017 14:40 6,4 C 6,3 C 6,4 C 83 % 1007,5 hPa 0,0 l/m 18,7 km/h (3 Bft) W 262 10 min 0,000 mm 172 W/m 3,7 C -0,9 C 53,1 km/h (7 Bft) 100 %
26.12.2017 14:50 6,3 C 6,3 C 6,4 C 83 % 1007,7 hPa 0,0 l/m 20,8 km/h (4 Bft) W-SW 257 0 min 0,000 mm 62 W/m 3,6 C -1,8 C 46,7 km/h (6 Bft) 100 %
26.12.2017 15:00 6,1 C 6,1 C 6,3 C 83 % 1007,6 hPa 0,0 l/m 13,4 km/h (3 Bft) SW 219 0 min 0,077 mm 35 W/m 3,4 C 1,2 C 33,8 km/h (5 Bft) 100 %
26.12.2017 15:10 6,0 C 6,0 C 6,1 C 83 % 1007,6 hPa 0,0 l/m 14,0 km/h (3 Bft) W 269 0 min 0,000 mm 42 W/m 3,3 C 0,8 C 30,6 km/h (5 Bft) 100 %
26.12.2017 15:20 5,8 C 5,8 C 6,0 C 82 % 1007,7 hPa 0,0 l/m 11,9 km/h (2 Bft) S-SW 209 0 min 0,000 mm 21 W/m 3,0 C 1,7 C 30,6 km/h (5 Bft) 100 %
26.12.2017 15:30 5,6 C 5,6 C 5,8 C 83 % 1007,7 hPa 0,0 l/m 10,6 km/h (2 Bft) W 277 0 min 0,000 mm 18 W/m 2,9 C 2,3 C 29,0 km/h (5 Bft) 100 %
26.12.2017 15:40 5,5 C 5,5 C 5,6 C 83 % 1007,5 hPa 0,0 l/m 11,7 km/h (2 Bft) S-SW 201 0 min 0,000 mm 23 W/m 2,8 C 1,5 C 30,6 km/h (5 Bft) 100 %
26.12.2017 15:50 5,4 C 5,4 C 5,5 C 83 % 1007,5 hPa 0,0 l/m 10,2 km/h (2 Bft) SW 221 0 min 0,000 mm 25 W/m 2,7 C 2,4 C 29,0 km/h (5 Bft) 100 %
26.12.2017 16:00 5,3 C 5,3 C 5,4 C 82 % 1007,5 hPa 0,0 l/m 13,8 km/h (3 Bft) S-SW 211 0 min 0,025 mm 18 W/m 2,5 C 0,1 C 30,6 km/h (5 Bft) 92 %
26.12.2017 16:10 5,3 C 5,3 C 5,4 C 82 % 1007,4 hPa 0,0 l/m 11,5 km/h (2 Bft) W-SW 249 0 min 0,000 mm 9 W/m 2,5 C 1,4 C 29,0 km/h (5 Bft) 100 %
26.12.2017 16:20 5,2 C 5,2 C 5,3 C 83 % 1007,3 hPa 0,0 l/m 7,4 km/h (2 Bft) SW 224 0 min 0,000 mm 0 W/m 2,6 C 4,3 C 19,3 km/h (3 Bft) 100 %
26.12.2017 16:30 5,1 C 5,1 C 5,2 C 84 % 1007,4 hPa 0,0 l/m 7,8 km/h (2 Bft) SW 215 0 min 0,000 mm 0 W/m 2,6 C 3,9 C 19,3 km/h (3 Bft) 100 %
26.12.2017 16:40 4,9 C 4,9 C 5,1 C 85 % 1007,5 hPa 0,0 l/m 7,3 km/h (2 Bft) S-SW 211 0 min 0,000 mm 0 W/m 2,6 C 4,1 C 14,5 km/h (3 Bft) 100 %
26.12.2017 16:50 4,9 C 4,9 C 4,9 C 85 % 1007,4 hPa 0,0 l/m 7,6 km/h (2 Bft) S-SW 199 0 min 0,000 mm 0 W/m 2,6 C 3,8 C 17,7 km/h (3 Bft) 100 %
26.12.2017 17:00 4,8 C 4,8 C 4,9 C 84 % 1007,5 hPa 0,0 l/m 9,5 km/h (2 Bft) S-SW 194 0 min 0,025 mm 0 W/m 2,3 C 2,2 C 20,9 km/h (4 Bft) 91 %
26.12.2017 17:10 4,6 C 4,6 C 4,8 C 84 % 1007,6 hPa 0,0 l/m 8,5 km/h (2 Bft) W-SW 242 0 min 0,000 mm 0 W/m 2,1 C 2,8 C 22,5 km/h (4 Bft) 100 %
26.12.2017 17:20 4,5 C 4,5 C 4,6 C 84 % 1007,5 hPa 0,0 l/m 6,0 km/h (2 Bft) W-SW 239 0 min 0,000 mm 0 W/m 2,0 C 4,5 C 17,7 km/h (3 Bft) 100 %
26.12.2017 17:30 4,4 C 4,4 C 4,5 C 84 % 1007,5 hPa 0,0 l/m 5,5 km/h (1 Bft) SW 218 0 min 0,000 mm 0 W/m 1,9 C 4,4 C 14,5 km/h (3 Bft) 100 %
26.12.2017 17:40 4,4 C 4,4 C 4,5 C 84 % 1007,5 hPa 0,0 l/m 5,2 km/h (1 Bft) SW 227 0 min 0,000 mm 0 W/m 1,9 C 4,4 C 12,9 km/h (3 Bft) 100 %
26.12.2017 17:50 4,4 C 4,4 C 4,5 C 84 % 1007,3 hPa 0,0 l/m 4,3 km/h (1 Bft) SW 223 0 min 0,000 mm 0 W/m 1,9 C 4,4 C 11,3 km/h (2 Bft) 100 %
26.12.2017 18:00 4,3 C 4,3 C 4,4 C 85 % 1007,1 hPa 0,0 l/m 4,0 km/h (1 Bft) S-SW 213 0 min 0,026 mm 0 W/m 2,0 C 4,3 C 6,4 km/h (2 Bft) 91 %
26.12.2017 18:10 4,2 C 4,2 C 4,3 C 85 % 1007,0 hPa 0,0 l/m 4,3 km/h (1 Bft) S-SW 210 0 min 0,000 mm 0 W/m 1,9 C 4,2 C 8,0 km/h (2 Bft) 100 %
26.12.2017 18:20 3,9 C 3,9 C 4,2 C 85 % 1006,8 hPa 0,0 l/m 4,4 km/h (1 Bft) S-SW 198 0 min 0,000 mm 0 W/m 1,6 C 3,9 C 11,3 km/h (2 Bft) 100 %
26.12.2017 18:30 3,9 C 3,9 C 3,9 C 85 % 1006,8 hPa 0,0 l/m 3,8 km/h (1 Bft) S-SW 205 0 min 0,000 mm 0 W/m 1,6 C 3,9 C 11,3 km/h (2 Bft) 99 %
26.12.2017 18:40 3,9 C 3,9 C 3,9 C 85 % 1006,5 hPa 0,0 l/m 4,3 km/h (1 Bft) SW 216 0 min 0,000 mm 0 W/m 1,6 C 3,9 C 9,7 km/h (2 Bft) 100 %
26.12.2017 18:50 3,8 C 3,8 C 3,9 C 85 % 1006,2 hPa 0,0 l/m 2,4 km/h (1 Bft) SW 223 0 min 0,000 mm 0 W/m 1,5 C 3,8 C 6,4 km/h (2 Bft) 100 %
26.12.2017 19:00 3,7 C 3,7 C 3,8 C 85 % 1006,2 hPa 0,0 l/m 1,0 km/h (0 Bft) SW 216 0 min 0,000 mm 0 W/m 1,4 C 3,7 C 6,4 km/h (2 Bft) 100 %
26.12.2017 19:10 3,7 C 3,7 C 3,7 C 85 % 1006,2 hPa 0,0 l/m 2,7 km/h (1 Bft) S-SW 212 0 min 0,000 mm 0 W/m 1,4 C 3,7 C 8,0 km/h (2 Bft) 100 %
26.12.2017 19:20 3,7 C 3,7 C 3,7 C 84 % 1005,8 hPa 0,0 l/m 0,6 km/h (0 Bft) S-SW 211 0 min 0,000 mm 0 W/m 1,3 C 3,7 C 4,8 km/h (1 Bft) 100 %
26.12.2017 19:30 3,7 C 3,7 C 3,7 C 84 % 1005,7 hPa 0,0 l/m 0,9 km/h (0 Bft) S-SW 196 0 min 0,000 mm 0 W/m 1,3 C 3,7 C 4,8 km/h (1 Bft) 100 %
26.12.2017 19:40 3,7 C 3,7 C 3,7 C 84 % 1005,5 hPa 0,0 l/m 0,6 km/h (0 Bft) S-SO 159 0 min 0,000 mm 0 W/m 1,3 C 3,7 C 4,8 km/h (1 Bft) 100 %
26.12.2017 19:50 3,5 C 3,5 C 3,7 C 85 % 1005,4 hPa 0,0 l/m 0,7 km/h (0 Bft) S-SO 157 0 min 0,000 mm 0 W/m 1,2 C 3,5 C 4,8 km/h (1 Bft) 100 %
26.12.2017 20:00 3,4 C 3,3 C 3,5 C 86 % 1005,2 hPa 0,0 l/m 1,3 km/h (1 Bft) SO 141 0 min 0,000 mm 0 W/m 1,3 C 3,4 C 6,4 km/h (2 Bft) 100 %
26.12.2017 20:10 3,3 C 3,3 C 3,4 C 86 % 1005,0 hPa 0,0 l/m 0,5 km/h (0 Bft) SO 144 0 min 0,000 mm 0 W/m 1,2 C 3,3 C 3,2 km/h (1 Bft) 100 %
26.12.2017 20:20 3,2 C 3,2 C 3,3 C 86 % 1004,8 hPa 0,0 l/m 0,0 km/h (0 Bft) SO 144 0 min 0,000 mm 0 W/m 1,1 C 3,2 C 0,0 km/h (0 Bft) 100 %
26.12.2017 20:30 2,8 C 2,8 C 3,2 C 87 % 1004,7 hPa 0,0 l/m 0,0 km/h (0 Bft) SO 144 0 min 0,000 mm 0 W/m 0,9 C 2,8 C 0,0 km/h (0 Bft) 100 %
26.12.2017 20:40 2,4 C 2,4 C 2,8 C 88 % 1004,4 hPa 0,0 l/m 0,3 km/h (0 Bft) SO 140 0 min 0,000 mm 0 W/m 0,6 C 2,4 C 4,8 km/h (1 Bft) 91 %
26.12.2017 20:50 2,5 C 2,4 C 2,5 C 88 % 1004,1 hPa 0,0 l/m 1,6 km/h (1 Bft) S-SO 147 0 min 0,000 mm 0 W/m 0,7 C 2,5 C 4,8 km/h (1 Bft) 100 %
26.12.2017 21:00 2,7 C 2,5 C 2,7 C 87 % 1003,7 hPa 0,0 l/m 2,0 km/h (1 Bft) SO 145 0 min 0,000 mm 0 W/m 0,8 C 2,7 C 6,4 km/h (2 Bft) 100 %
26.12.2017 21:10 3,1 C 2,7 C 3,1 C 86 % 1003,5 hPa 0,0 l/m 4,8 km/h (1 Bft) SO 135 0 min 0,000 mm 0 W/m 1,0 C 3,1 C 11,3 km/h (2 Bft) 98 %
26.12.2017 21:20 3,2 C 3,1 C 3,2 C 84 % 1003,3 hPa 0,0 l/m 4,8 km/h (1 Bft) SO 135 0 min 0,000 mm 0 W/m 0,8 C 3,2 C 9,7 km/h (2 Bft) 98 %
26.12.2017 21:30 3,3 C 3,2 C 3,3 C 84 % 1002,9 hPa 0,0 l/m 4,8 km/h (1 Bft) S-SO 157 0 min 0,000 mm 0 W/m 0,9 C 3,3 C 11,3 km/h (2 Bft) 97 %
26.12.2017 21:40 3,1 C 3,1 C 3,3 C 84 % 1002,8 hPa 0,0 l/m 3,2 km/h (1 Bft) S-SO 157 0 min 0,000 mm 0 W/m 0,7 C 3,1 C 9,7 km/h (2 Bft) 98 %
26.12.2017 21:50 2,8 C 2,8 C 3,1 C 85 % 1002,7 hPa 0,0 l/m 0,0 km/h (0 Bft) S-SO 157 0 min 0,000 mm 0 W/m 0,5 C 2,8 C 1,6 km/h (1 Bft) 98 %
26.12.2017 22:00 2,7 C 2,7 C 2,8 C 84 % 1002,5 hPa 0,0 l/m 1,6 km/h (1 Bft) SO 135 0 min 0,000 mm 0 W/m 0,3 C 2,7 C 8,0 km/h (2 Bft) 98 %
26.12.2017 22:10 2,8 C 2,7 C 2,8 C 84 % 1002,4 hPa 0,0 l/m 1,6 km/h (1 Bft) SO 135 0 min 0,000 mm 0 W/m 0,4 C 2,8 C 8,0 km/h (2 Bft) 97 %
26.12.2017 22:20 2,7 C 2,7 C 2,8 C 83 % 1002,2 hPa 0,0 l/m 1,6 km/h (1 Bft) SO 135 0 min 0,000 mm 0 W/m 0,1 C 2,7 C 8,0 km/h (2 Bft) 97 %
26.12.2017 22:30 2,6 C 2,6 C 2,7 C 83 % 1001,9 hPa 0,0 l/m 0,0 km/h (0 Bft) S-SO 157 0 min 0,000 mm 0 W/m 0,0 C 2,6 C 4,8 km/h (1 Bft) 97 %
26.12.2017 22:40 2,4 C 2,4 C 2,6 C 83 % 1001,8 hPa 0,0 l/m 0,0 km/h (0 Bft) S-SO 157 0 min 0,000 mm 0 W/m -0,2 C 2,4 C 4,8 km/h (1 Bft) 98 %
26.12.2017 22:50 2,0 C 2,0 C 2,4 C 84 % 1001,7 hPa 0,0 l/m 1,6 km/h (1 Bft) SO 135 0 min 0,000 mm 0 W/m -0,4 C 2,0 C 6,4 km/h (2 Bft) 98 %
26.12.2017 23:00 2,2 C 2,0 C 2,2 C 84 % 1001,6 hPa 0,0 l/m 0,0 km/h (0 Bft) SO 135 0 min 0,000 mm 0 W/m -0,2 C 2,2 C 1,6 km/h (1 Bft) 87 %
26.12.2017 23:10 2,2 C 2,1 C 2,2 C 84 % 1001,5 hPa 0,0 l/m 0,0 km/h (0 Bft) S-SO 157 0 min 0,000 mm 0 W/m -0,2 C 2,2 C 4,8 km/h (1 Bft) 97 %
26.12.2017 23:20 2,3 C 2,2 C 2,3 C 83 % 1001,2 hPa 0,0 l/m 1,6 km/h (1 Bft) S-SO 157 0 min 0,000 mm 0 W/m -0,3 C 2,3 C 4,8 km/h (1 Bft) 98 %
26.12.2017 23:30 2,2 C 2,2 C 2,3 C 83 % 1001,1 hPa 0,0 l/m 0,0 km/h (0 Bft) S-SO 157 0 min 0,000 mm 0 W/m -0,4 C 2,2 C 4,8 km/h (1 Bft) 97 %
26.12.2017 23:40 2,2 C 2,1 C 2,2 C 83 % 1001,0 hPa 0,0 l/m 1,6 km/h (1 Bft) SO 135 0 min 0,000 mm 0 W/m -0,4 C 2,2 C 6,4 km/h (2 Bft) 97 %
26.12.2017 23:50 2,4 C 2,2 C 2,4 C 83 % 1000,7 hPa 0,0 l/m 1,6 km/h (1 Bft) SO 135 0 min 0,000 mm 0 W/m -0,2 C 2,4 C 4,8 km/h (1 Bft) 98 %
_ Min-Zeit 02:20 02:20 02:40 12:30 23:50 - 00:00 - - - - - 02:30 14:20 00:00 23:00
Minimum _ -3,6 C -3,6 C -3,6 C 75 % 1000,7 hPa - 0,0 km/h (0 Bft) - - - - - -4,8 C -3,7 C 0,0 km/h (0 Bft) 87 %
_ Max-Zeit 12:40 12:50 12:40 07:50 00:00 09:50 12:30 - - 10:00 13:00 12:50 12:50 11:50 12:40 00:00
Maximum _ 8,6 C 8,6 C 8,6 C 92 % 1013,2 hPa 0,2 l/m 27,4 km/h
SW (4 Bft)
- - 10 min 0,102 mm 243 W/m 5,0 C 6,1 C 62,8 km/h
SW (8 Bft)
100 %
Durchschnitt _ 1,6 C 1,5 C 1,7 C 87 % 1007,1 hPa #0,5 l/m 5,5 km/h (1 Bft) S-SW - #1:10 h #0,432 mm 83 W/m -0,3 C 0,2 C 12,9 km/h (3 Bft) 99 %
PRIVATE WETTERSTATION BILLIGHEIM-ALLFELD - www.neckar-odenwald-wetter.de - Holger Sonntag